Auburn, CA

8:02 AM PST on December 10, 2019 (GMT -0800)
Auburn Municipal

Weather History for KAUN - October, 2019

Change the Weather History Date:

Thursday, October 10, 2019

  Actual Average Record
Temperature  
Mean Temperature 62 °F -  
Max Temperature 75 °F 78 °F 92 °F (1951)
Min Temperature 48 °F 52 °F 33 °F (2008)
Degree Days  
Heating Degree Days 4    
Growing Degree Days 12 (Base 50)    
Moisture  
Dew Point 18 °F    
Average Humidity 20    
Maximum Humidity 31    
Minimum Humidity 12    
Precipitation  
Precipitation 0.00 in - - ()
Sea Level Pressure  
Sea Level Pressure 29.99 in    
Wind  
Wind Speed 1 mph ()    
Max Wind Speed 9 mph    
Max Gust Speed 12 mph    
Visibility 10.0 miles    
Events      
Averages and records for this station are not official NWS values.
T = Trace of Precipitation, MM = Missing Value Source: Averaged Metar Reports

Daily Weather History Graph

Daily Weather History Graph

Search for Another Location

Airport or City:

Astronomy

Oct. 10, 2019 Rise Set
Actual Time 7:08 AM PDT 6:33 PM PDT
Civil Twilight 6:41 AM PDT 6:59 PM PDT
Nautical Twilight 6:11 AM PDT 7:30 PM PDT
Astronomical Twilight 5:40 AM PDT 8:01 PM PDT
Moon 5:35 PM PDT 3:59 AM PDT
Length of Visible Light 12h 18m
Length of Day
11h 24m
Waxing Gibbous, 91% of the Moon is Illuminated
Oct 10
Waxing Gibbous
Oct 13
Full
Oct 21
Last Quarter
Oct 27
New
Nov 4
First Quarter

Hourly Weather History & Observations

Time (PDT) Temp. Dew Point Humidity Pressure Visibility Wind Dir Wind Speed Gust Speed Precip Events Conditions
12:15 AM 53.6 °F 12.2 °F 19% 29.95 in 10.0 mi Calm Calm - N/A   Clear
12:35 AM 51.8 °F 14.0 °F 22% 29.94 in 10.0 mi Calm Calm - N/A   Clear
12:55 AM 53.6 °F 12.2 °F 19% 29.94 in 10.0 mi Calm Calm - N/A   Clear
1:15 AM 51.8 °F 14.0 °F 22% 29.94 in 10.0 mi Calm Calm - N/A   Clear
1:35 AM 51.8 °F 12.2 °F 21% 29.94 in 10.0 mi Calm Calm - N/A   Clear
1:55 AM 53.6 °F 12.2 °F 19% 29.95 in 10.0 mi Calm Calm - N/A   Clear
2:15 AM 53.6 °F 12.2 °F 19% 29.95 in 10.0 mi NNE 4.6 mph - N/A   Clear
2:35 AM 53.6 °F 12.2 °F 19% 29.95 in 10.0 mi Calm Calm - N/A   Clear
2:55 AM 51.8 °F 12.2 °F 21% 29.95 in 10.0 mi Calm Calm - N/A   Clear
3:15 AM 51.8 °F 12.2 °F 21% 29.94 in 10.0 mi NE 4.6 mph - N/A   Clear
3:35 AM 51.8 °F 12.2 °F 21% 29.94 in 10.0 mi Calm Calm - N/A   Clear
3:55 AM 51.8 °F 12.2 °F 21% 29.94 in 10.0 mi Calm Calm - N/A   Clear
4:15 AM 51.8 °F 12.2 °F 21% 29.95 in 10.0 mi Calm Calm - N/A   Clear
4:35 AM 53.6 °F 10.4 °F 18% 29.96 in 10.0 mi Calm Calm - N/A   Clear
4:55 AM 48.2 °F 12.2 °F 24% 29.97 in 10.0 mi Calm Calm - N/A   Clear
5:15 AM 50.0 °F 10.4 °F 20% 29.97 in 10.0 mi Calm Calm - N/A   Clear
5:35 AM 50.0 °F 10.4 °F 20% 29.97 in 10.0 mi Calm Calm - N/A   Clear
5:55 AM 50.0 °F 10.4 °F 20% 29.97 in 10.0 mi Calm Calm - N/A   Clear
6:15 AM 50.0 °F 10.4 °F 20% 29.97 in 10.0 mi Calm Calm - N/A   Clear
6:35 AM 50.0 °F 8.6 °F 19% 29.98 in 10.0 mi Calm Calm - N/A   Clear
6:55 AM 50.0 °F 8.6 °F 19% 29.98 in 10.0 mi Calm Calm - N/A   Clear
7:15 AM 51.8 °F 8.6 °F 18% 29.97 in 10.0 mi North 5.8 mph - N/A   Clear
7:35 AM 51.8 °F 8.6 °F 18% 29.96 in 10.0 mi North 6.9 mph - N/A   Clear
7:55 AM 53.6 °F 12.2 °F 19% 29.97 in 10.0 mi Calm Calm - N/A   Clear
8:15 AM 57.2 °F 14.0 °F 18% 29.98 in 10.0 mi Calm Calm - N/A   Clear
8:35 AM 60.8 °F 10.4 °F 14% 29.99 in 10.0 mi Calm Calm - N/A   Clear
8:55 AM 62.6 °F 12.2 °F 14% 29.99 in 10.0 mi Calm Calm - N/A   Clear
9:15 AM 62.6 °F 14.0 °F 15% 30.00 in 10.0 mi NNE 6.9 mph - N/A   Clear
9:35 AM 66.2 °F 14.0 °F 13% 30.00 in 10.0 mi Calm Calm - N/A   Clear
9:55 AM 66.2 °F 15.8 °F 14% 30.00 in 10.0 mi NNE 4.6 mph - N/A   Clear
10:15 AM 69.8 °F 15.8 °F 13% 30.01 in 10.0 mi Calm Calm - N/A   Clear
10:35 AM 69.8 °F 17.6 °F 14% 30.01 in 10.0 mi Calm Calm - N/A   Clear
10:55 AM 69.8 °F 19.4 °F 15% 30.01 in 10.0 mi SW 4.6 mph - N/A   Clear
11:15 AM 69.8 °F 21.2 °F 16% 30.02 in 10.0 mi SW 6.9 mph - N/A   Clear
11:35 AM 69.8 °F 21.2 °F 16% 30.02 in 10.0 mi Calm Calm - N/A   Clear
11:55 AM 69.8 °F 23.0 °F 17% 30.02 in 10.0 mi Calm Calm - N/A   Clear
12:15 PM 69.8 °F 23.0 °F 17% 30.03 in 10.0 mi Calm Calm - N/A   Clear
12:35 PM 69.8 °F 19.4 °F 15% 30.02 in 10.0 mi Calm Calm - N/A   Clear
12:55 PM 69.8 °F 17.6 °F 14% 30.02 in 10.0 mi Calm Calm - N/A   Clear
1:15 PM 69.8 °F 19.4 °F 15% 30.01 in 10.0 mi Calm Calm - N/A   Clear
1:35 PM 69.8 °F 19.4 °F 15% 30.01 in 10.0 mi Calm Calm - N/A   Clear
1:55 PM 71.6 °F 19.4 °F 14% 30.00 in 10.0 mi Calm Calm - N/A   Clear
2:15 PM 73.4 °F 19.4 °F 13% 29.99 in 10.0 mi Calm Calm - N/A   Clear
2:35 PM 73.4 °F 21.2 °F 14% 29.99 in 10.0 mi Calm Calm - N/A   Clear
2:55 PM 73.4 °F 21.2 °F 14% 29.99 in 10.0 mi Calm Calm - N/A   Clear
3:15 PM 73.4 °F 21.2 °F 14% 29.99 in 10.0 mi SW 5.8 mph - N/A   Clear
3:35 PM 75.2 °F 19.4 °F 12% 29.98 in 10.0 mi Calm Calm 11.5 mph N/A   Clear
3:55 PM 75.2 °F 21.2 °F 13% 29.98 in 10.0 mi WSW 6.9 mph - N/A   Clear
4:15 PM 73.4 °F 21.2 °F 14% 29.98 in 10.0 mi WSW 8.1 mph - N/A   Clear
4:35 PM 71.6 °F 21.2 °F 15% 29.98 in 10.0 mi SW 8.1 mph - N/A   Clear
4:55 PM 71.6 °F 21.2 °F 15% 29.99 in 10.0 mi SW 5.8 mph - N/A   Clear
5:15 PM 69.8 °F 21.2 °F 16% 29.99 in 10.0 mi WSW 4.6 mph - N/A   Clear
5:35 PM 69.8 °F 21.2 °F 16% 29.99 in 10.0 mi Calm Calm - N/A   Clear
5:55 PM 68.0 °F 23.0 °F 18% 29.99 in 10.0 mi Calm Calm - N/A   Clear
6:15 PM 66.2 °F 24.8 °F 21% 29.99 in 10.0 mi Calm Calm - N/A   Clear
6:35 PM 66.2 °F 24.8 °F 21% 29.99 in 10.0 mi Calm Calm - N/A   Clear
6:55 PM 62.6 °F 28.4 °F 27% 29.99 in 10.0 mi Calm Calm - N/A   Clear
7:15 PM 59.0 °F 26.6 °F 29% 29.99 in 10.0 mi Calm Calm - N/A   Clear
7:35 PM 59.0 °F 26.6 °F 29% 30.00 in 10.0 mi Calm Calm - N/A   Partly Cloudy
7:55 PM 59.0 °F 24.8 °F 27% 30.00 in 10.0 mi Calm Calm - N/A   Clear
8:15 PM 59.0 °F 24.8 °F 27% 30.00 in 10.0 mi Calm Calm - N/A   Clear
8:35 PM 57.2 °F 24.8 °F 29% 30.01 in 10.0 mi Calm Calm - N/A   Clear
8:55 PM 57.2 °F 24.8 °F 29% 30.01 in 10.0 mi Calm Calm - N/A   Clear
9:15 PM 57.2 °F 24.8 °F 29% 30.01 in 10.0 mi Calm Calm - N/A   Clear
9:55 PM 57.2 °F 26.6 °F 31% 30.02 in 10.0 mi Calm Calm - N/A   Scattered Clouds
10:15 PM 57.2 °F 26.6 °F 31% 30.03 in 10.0 mi East 3.5 mph - N/A   Scattered Clouds
10:35 PM 57.2 °F 26.6 °F 31% 30.02 in 10.0 mi East 9.2 mph - N/A   Scattered Clouds
10:55 PM 57.2 °F 26.6 °F 31% 30.03 in 10.0 mi East 6.9 mph - N/A   Mostly Cloudy
11:15 PM 57.2 °F 26.6 °F 31% 30.03 in 10.0 mi East 5.8 mph - N/A   Mostly Cloudy
11:35 PM 57.2 °F 26.6 °F 31% 30.03 in 10.0 mi East 6.9 mph - N/A   Mostly Cloudy
11:55 PM 57.2 °F 26.6 °F 31% 30.03 in 10.0 mi East 6.9 mph - N/A   Overcast